Location: Sobotiste
(48.7170°N, 17.4000°E)
Time: 07:38:12
(UTC+01:00)

Oscar 19 - Visible Passes

Search period start: 11 March 2026 00:00
Search period end: 21 March 2026 00:00
Orbit: 769 x 787 km, 98.9° (Epoch: 10 March)

Date Brightness Start Highest point End Pass type
(mag) Time Alt. Az. Time Alt. Az. Time Alt. Az.
11 Mar 14.5 05:20:28 10° ENE 05:21:26 10° E 05:22:24 10° E visible
11 Mar 11.7 18:16:45 10° S 18:21:45 51° W 18:26:46 10° NNW visible
12 Mar 13.7 19:25:48 10° WSW 19:28:34 14° W 19:31:20 10° NW visible
13 Mar 13.0 18:50:49 10° SSW 18:55:10 27° W 18:59:31 10° NW visible
14 Mar 14.5 05:20:42 10° ENE 05:21:36 10° E 05:22:29 10° E visible
15 Mar 13.7 19:25:57 10° WSW 19:28:44 15° W 19:31:32 10° NW visible
16 Mar 13.0 18:51:00 10° SSW 18:55:20 27° W 18:59:42 10° NW visible
17 Mar 14.5 05:20:59 10° ENE 05:21:46 10° E 05:22:34 10° E visible
18 Mar 13.7 19:26:06 10° WSW 19:28:54 15° W 19:31:43 10° NW visible
19 Mar 13.0 18:51:10 10° SSW 18:55:30 27° W 18:59:52 10° NW visible
20 Mar 14.5 05:21:14 10° ENE 05:21:55 10° E 05:22:38 10° E visible
